Location: Casilda
(33.0440°S, 61.1680°W)
Time: 16:30:18
(UTC-03:00)

ISS - Pass Details

Date: 03 March 2021
Orbit: 417 x 422 km, 51.6° (Epoch: 27 February)

Event Time Altitude Azimuth Distance (km) Brightness Sun altitude
Rises 20:21:21 0° 211° (SSW) 2,403 0.9 -9.9°
Reaches altitude 10° 20:24:07 10° 188° (S) 1,530 -0.6 -10.4°
Maximum altitude 20:26:18 16° 148° (SSE) 1,222 -1.6 -10.9°
Enters shadow 20:28:06 12° 114° (ESE) 1,432 -1.5 -11.2°
